AMAZONAS 5 (42934 NORAD) Tracking and Keplerian Element Data

This shows tracking and keplerian element data for the satellite.

Feedback or suggestion? Click here.




ElementValue
Catalog42934
NameAMAZONAS 5
Epoch Orbit939
Epoch Day93.47942191
Epoch Year2020
RAAN317.0627
Inclination0.0413
Eccentricity0.000464
Argument of Perigee38.6782
Mean Anonmoly307.1042
Mean Motion1.0027245
Decay Rate-2.9E-06
L11 42934U 17053A 20093.47942191 -.00000290 00000-0 00000+0 0 9990
L22 42934 0.0413 317.0627 0004640 38.6782 307.1042 1.00272450 9395

Live tracking and technical data element details for AMAZONAS 5 (NORAD 42934). AMAZONAS 5 can be tracked NOW for your location showing map with azimuth and elevation plus other details from your city location.

Track the satellite on the map from your city or location and see movement details for azimuth, elevation, latitude, longitude, range, height, and movement on the map or in text.







IsCatalogInMostPopularTable: catalog: 42934, numindb: 405
Update: records affected: 1



GetName: 42934 AMAZONAS 5

Hit Count: updated at: Thu, 09 Apr 2020 16:22:29 GMT